Find Starlink 31460

NORAD ID: 59008 Int'l Des: 2024-036 Owner: SPXS Country: US Constellation: starlink operational
LEOCIRCULAR

当前视图

正在加载3D地球...

About Starlink 31460

Starlink 31460 (NORAD 59008) is a starlink constellation satellite (v2 mini) launched Feb 23, 2024 by SPXS of US. It operates in LEO, CIRCULAR orbit with a mass of 730.00 kg.

关于 Starlink 31460

正在加载描述...

即将过境

Passes for default location (London). Set your location on the main map for personalized predictions.

高度历史

Loading altitude history...

两行轨道根数

1 59008U 24036L 26171.44516273 .00002931 00000-0 11109-3 0 9996
2 59008 53.1622 320.9779 0001280 85.5333 274.5814 15.30182980131056
Epoch: Jun 20, 2026 • Age: 16 hours

当前状态

高度 480.5 km
速度 7.63 km/s
星下点 51.19°N, 118.53°E
发射日期 Feb 23, 2024
运行时间 2.3 years
类型 internet

技术详情

分类 Payload
质量 730.00 kg
干质量 700.00 kg
总质量 730.00 kg
长度 0.30 m
直径 4.10 m
跨度 29.00 m
形状 Box + pan
制造商 SPXS
平台类型 Starlink V2M
阶段状态 In Orbit
所有者/国家 SPXS/US

Most Searched